Date String (YYYY-MM-DD hh:mm:ss) UTC,Instrument flags,Ambient pressure (hPa),Sample flow (lpm),Bypass flow (lpm),Sample temperature (°C),Ambient temperature (°C),ASC tube jacket temperature (°C),LED temperature (°C),Box temperature (°C),Sample RH (%),Span deviation,Mass concentration (μg/m³),Mass concentration (μg/m³),Mass concentration (μg/m³)
DateTimeUTC,F1_M11,P_M11,Q1_M11,Q2_M11,T1_M11,T2_M11,T3_M11,T4_M11,T5_M11,U1_M11,ZSPAN_M11,X0_M11,X2_M11,X1_M11
2022-10-15 17:00:00,,0829.2,5.00,0.00,29.2,27.9,00.0,38.0,31.1,14.6,0000.0,0011.77,0005.11,0004.70
2022-10-15 17:01:00,,0829.2,5.00,0.00,29.2,27.9,00.0,38.0,31.1,14.7,0000.0,0011.75,0005.07,0004.67
2022-10-15 17:02:00,,0829.2,5.00,0.00,29.2,27.9,00.0,38.0,31.1,15.1,0000.0,0012.19,0005.07,0004.64
2022-10-15 17:03:00,,0829.3,4.99,0.00,29.2,27.9,00.0,38.0,31.1,15.0,0000.0,0011.68,0005.08,0004.65
2022-10-15 17:04:00,,0829.2,5.00,0.00,29.2,27.9,00.0,38.0,31.1,14.9,0000.0,0011.45,0005.07,0004.64
2022-10-15 17:05:00,,0829.2,5.00,0.00,29.3,27.9,00.0,38.0,31.1,14.8,0000.0,0010.92,0005.04,0004.63
2022-10-15 17:06:00,,0829.3,5.00,0.00,29.3,28.0,00.0,38.1,31.1,14.7,0000.0,0010.93,0005.01,0004.63
2022-10-15 17:07:00,,0829.2,5.01,0.00,29.3,28.0,00.0,38.1,31.1,14.5,0000.0,0011.41,0005.01,0004.62
2022-10-15 17:08:00,,0829.2,5.00,0.00,29.3,28.0,00.0,38.1,31.1,14.6,0000.0,0011.89,0005.01,0004.62
2022-10-15 17:09:00,,0829.2,5.00,0.00,29.3,28.0,00.0,38.1,31.1,14.7,0000.0,0011.92,0005.01,0004.60
2022-10-15 17:10:00,,0829.2,5.00,0.00,29.3,28.0,00.0,38.1,31.1,14.7,0000.0,0011.41,0005.00,0004.57
2022-10-15 17:11:00,,0829.3,5.00,0.00,29.3,28.0,00.0,38.1,31.1,14.5,0000.0,0011.14,0004.97,0004.54
2022-10-15 17:12:00,,0829.2,4.99,0.00,29.3,28.0,00.0,38.1,31.2,14.4,0000.0,0011.85,0004.94,0004.49
2022-10-15 17:13:00,,0829.3,5.01,0.00,29.3,28.0,00.0,38.1,31.2,14.5,0000.0,0011.84,0004.90,0004.47
2022-10-15 17:14:00,,0829.2,5.01,0.00,29.3,28.0,00.0,38.1,31.2,14.5,0000.0,0011.94,0004.87,0004.42
2022-10-15 17:15:00,,0829.2,5.01,0.00,29.3,28.0,00.0,38.1,31.2,14.5,0000.0,0012.02,0004.83,0004.38
2022-10-15 17:16:00,,0829.2,5.00,0.00,29.3,28.0,00.0,38.1,31.2,14.4,0000.0,0011.85,0004.77,0004.33
2022-10-15 17:17:00,,0829.2,5.00,0.00,29.3,28.0,00.0,38.1,31.2,14.6,0000.0,0011.41,0004.72,0004.27
2022-10-15 17:18:00,,0829.2,5.00,0.00,29.3,28.1,00.0,38.1,31.2,14.8,0000.0,0010.69,0004.69,0004.23
2022-10-15 17:19:00,,0829.3,4.99,0.00,29.4,28.1,00.0,38.1,31.2,14.7,0000.0,0010.62,0004.68,0004.22
2022-10-15 17:20:00,,0829.2,5.01,0.00,29.4,28.1,00.0,38.1,31.2,14.8,0000.0,0010.58,0004.70,0004.23
2022-10-15 17:21:00,,0829.3,5.01,0.00,29.4,28.2,00.0,38.2,31.2,14.8,0000.0,0010.51,0004.71,0004.25
2022-10-15 17:22:00,,0829.2,4.99,0.00,29.4,28.2,00.0,38.2,31.2,15.0,0000.0,0010.16,0004.73,0004.28
2022-10-15 17:23:00,,0829.3,5.00,0.00,29.4,28.2,00.0,38.2,31.3,14.7,0000.0,0009.56,0004.78,0004.31
2022-10-15 17:24:00,,0829.2,5.01,0.00,29.4,28.2,00.0,38.2,31.3,14.8,0000.0,0009.12,0004.82,0004.33
2022-10-15 17:25:00,,0829.2,5.00,0.00,29.4,28.2,00.0,38.2,31.3,14.8,0000.0,0008.94,0004.84,0004.37
2022-10-15 17:26:00,,0829.2,4.98,0.00,29.5,28.2,00.0,38.2,31.3,14.8,0000.0,0008.98,0004.88,0004.40
2022-10-15 17:27:00,,0829.2,5.01,0.00,29.5,28.2,00.0,38.2,31.3,14.6,0000.0,0009.37,0004.92,0004.45
2022-10-15 17:28:00,,0829.3,5.02,0.00,29.5,28.2,00.0,38.2,31.3,14.5,0000.0,0009.42,0004.98,0004.50
2022-10-15 17:29:00,,0829.3,4.99,0.00,29.5,28.3,00.0,38.2,31.3,14.6,0000.0,0009.53,0005.04,0004.54
2022-10-15 17:30:00,,0829.3,5.00,0.00,29.5,28.3,00.0,38.3,31.3,14.6,0000.0,0008.93,0005.05,0004.55
2022-10-15 17:31:00,,0829.3,5.00,0.00,29.5,28.3,00.0,38.3,31.3,14.6,0000.0,0009.01,0005.03,0004.56
2022-10-15 17:32:00,,0829.2,5.00,0.00,29.5,28.3,00.0,38.3,31.4,14.4,0000.0,0009.33,0005.03,0004.58
2022-10-15 17:33:00,,0829.2,5.00,0.00,29.5,28.4,00.0,38.3,31.4,14.5,0000.0,0009.33,0005.05,0004.58
2022-10-15 17:34:00,,0829.2,5.00,0.00,29.5,28.4,00.0,38.3,31.4,14.5,0000.0,0009.30,0005.05,0004.59
2022-10-15 17:35:00,,0829.2,5.01,0.00,29.6,28.4,00.0,38.3,31.4,14.3,0000.0,0009.18,0005.02,0004.59
2022-10-15 17:36:00,,0829.2,5.00,0.00,29.6,28.4,00.0,38.3,31.4,14.4,0000.0,0009.22,0005.00,0004.59
2022-10-15 17:37:00,,0829.2,5.00,0.00,29.6,28.4,00.0,38.3,31.4,14.6,0000.0,0009.63,0005.00,0004.60
2022-10-15 17:38:00,,0829.2,4.99,0.00,29.6,28.4,00.0,38.4,31.4,14.5,0000.0,0009.64,0005.03,0004.61
2022-10-15 17:39:00,,0829.2,5.01,0.00,29.6,28.5,00.0,38.4,31.5,14.5,0000.0,0009.80,0005.06,0004.61
2022-10-15 17:40:00,,0829.2,5.01,0.00,29.6,28.5,00.0,38.4,31.5,14.6,0000.0,0009.72,0005.04,0004.62
2022-10-15 17:41:00,,0829.2,4.99,0.00,29.6,28.5,00.0,38.4,31.5,14.5,0000.0,0009.79,0005.06,0004.63
2022-10-15 17:42:00,,0829.2,5.00,0.00,29.7,28.5,00.0,38.4,31.5,14.4,0000.0,0009.49,0005.07,0004.64
2022-10-15 17:43:00,,0829.2,5.00,0.00,29.7,28.5,00.0,38.4,31.5,14.5,0000.0,0009.09,0005.09,0004.65
2022-10-15 17:44:00,,0829.1,5.00,0.00,29.7,28.5,00.0,38.4,31.5,14.4,0000.0,0009.24,0005.09,0004.66
2022-10-15 17:45:00,,0829.2,5.00,0.00,29.7,28.6,00.0,38.5,31.5,14.3,0000.0,0010.01,0005.08,0004.67
2022-10-15 17:46:00,,0829.2,5.00,0.00,29.7,28.6,00.0,38.5,31.5,14.4,0000.0,0010.46,0005.11,0004.69
2022-10-15 17:47:00,,0829.2,5.01,0.00,29.7,28.6,00.0,38.5,31.5,14.5,0000.0,0010.52,0005.11,0004.69
2022-10-15 17:48:00,,0829.2,5.00,0.00,29.7,28.6,00.0,38.5,31.6,14.4,0000.0,0009.94,0005.11,0004.68
2022-10-15 17:49:00,,0829.3,4.99,0.00,29.8,28.6,00.0,38.5,31.6,14.4,0000.0,0010.04,0005.10,0004.67
2022-10-15 17:50:00,,0829.2,5.00,0.00,29.8,28.7,00.0,38.5,31.6,14.3,0000.0,0010.06,0005.07,0004.68
2022-10-15 17:51:00,,0829.2,5.01,0.00,29.8,28.7,00.0,38.5,31.6,14.4,0000.0,0010.07,0005.07,0004.67
2022-10-15 17:52:00,,0829.2,5.00,0.00,29.8,28.7,00.0,38.6,31.6,14.3,0000.0,0010.01,0005.05,0004.66
2022-10-15 17:53:00,,0829.2,4.99,0.00,29.8,28.7,00.0,38.6,31.7,14.1,0000.0,0010.14,0005.08,0004.64
2022-10-15 17:54:00,,0829.3,5.00,0.00,29.8,28.7,00.0,38.6,31.7,14.0,0000.0,0010.07,0005.05,0004.62
2022-10-15 17:55:00,,0829.2,5.01,0.00,29.9,28.8,00.0,38.6,31.7,13.9,0000.0,0010.27,0005.09,0004.60
2022-10-15 17:56:00,,0829.2,5.01,0.00,29.9,28.8,00.0,38.6,31.7,14.0,0000.0,0009.82,0005.09,0004.58
2022-10-15 17:57:00,,0829.3,5.00,0.00,29.9,28.8,00.0,38.6,31.7,14.1,0000.0,0009.42,0005.09,0004.56
2022-10-15 17:58:00,,0829.3,5.00,0.00,29.9,28.8,00.0,38.7,31.7,14.2,0000.0,0009.50,0005.08,0004.55
2022-10-15 17:59:00,,0829.3,5.00,0.00,29.9,28.9,00.0,38.7,31.8,14.5,0000.0,0009.82,0005.10,0004.53
